Regional Weather Roundup
Issued by NWS Goodland, KS

Home | Current Version | Previous Version | Text Only | Print | Product List | Glossary Off
Versions: 1 2 3 4 5 6 7 8 9 10 11 12 13 14 15 16 17 18 19 20 21 22 23 24 25 26 27 28 29 30 31 32 33 34 35 36 37 38 39 40 41 42 43 44 45 46 47 48 49 50

000
ASUS43 KGLD 271108
RWRGLD

GOODLAND FORECAST AREA HOURLY WEATHER ROUNDUP
NATIONAL WEATHER SERVICE GOODLAND KS
500 AM MDT MON APR 27 2015

...OFFICIAL OBSERVATIONS...

CITY           SKY/WX    TMP DP  RH WIND       PRES   REMARKS
GOODLAND KS    CLOUDY    44  42  93 NE13      30.12R FOG
HILL CITY KS   CLOUDY    42  37  82 NE8       30.12R
IMPERIAL NEB   CLOUDY    45  41  86 E6        30.16R
MCCOOK NEB     MOCLDY    39  35  86 N5        30.15R
AKRON CO       CLOUDY    41  41 100 NE9       30.14R FOG
BURLINGTON CO  CLOUDY    43  41  93 NE13      30.11R
LIMON CO       LGT RAIN  36  34  92 NW7       30.12R
$$

...UNOFFICIAL OBSERVATIONS...

CITY           SKY/WX    TMP DP  RH WIND       PRES   REMARKS
COLBY KS       CLOUDY    43  43 100 N10       30.13S FOG
GOVE KS          N/A     46  32  58 MISG        N/A
LENORA KS        N/A     40  32  73 MISG        N/A
NORTON KS      CLEAR     39  34  81 NE3       30.12R
SHARON SPRINGS   N/A     43  42  97 N10G17      N/A
TRIBUNE KS     CLOUDY    45  45 100 N14       30.08S
KIT CARSON CO    N/A     42  40  92 MISG        N/A
$$



USA.gov is the U.S. government's official web portal to all federal, state and local government web resources and services.